,,Stat6,,Stat2,,Stat8,,Stat9,,Stat10,,Wind1,,Wind1,
time,status,PA1M_AVG,status,PR1M_SUM,status,RH1M_AVG,status,SR1M_AVG,status,TA1M_AVG,status,W1dAve1m,status,W1sAve1m,
2004-10-23, 00:00:00,VALID,917.772,VALID,0,VALID,100,VALID,-0.0679233,VALID,19.4508,VALID,26,VALID,1.46584,
2004-10-23, 00:01:00,VALID,917.753,VALID,0,VALID,100,VALID,-0.0849042,VALID,19.4292,VALID,57,VALID,1.42914,
2004-10-23, 00:02:00,VALID,917.764,VALID,0,VALID,100,VALID,-0.101885,VALID,19.4094,VALID,72,VALID,0.473633,
2004-10-23, 00:03:00,VALID,917.761,VALID,0,VALID,100,VALID,-0.0849042,VALID,19.4126,VALID,71,VALID,0.308416,
2004-10-23, 00:04:00,VALID,917.761,VALID,0,VALID,100,VALID,-0.101885,VALID,19.4195,VALID,73,VALID,0.53016,
2004-10-23, 00:05:00,VALID,917.747,VALID,0,VALID,100,VALID,-0.0509425,VALID,19.4228,VALID,74,VALID,0.379179,
2004-10-23, 00:06:00,VALID,917.745,VALID,0,VALID,100,VALID,-0.101885,VALID,19.4126,VALID,74,VALID,0.187128,
2004-10-23, 00:07:00,VALID,917.727,VALID,0,VALID,100,VALID,-0.101885,VALID,19.4094,VALID,74,VALID,0.00859375,
2004-10-23, 00:08:00,VALID,917.692,VALID,0,VALID,100,VALID,-0.101885,VALID,19.4029,VALID,74,VALID,0.258984,
2004-10-23, 00:09:00,VALID,917.679,VALID,0,VALID,100,VALID,-0.0849042,VALID,19.419,VALID,67,VALID,0.2141,
2004-10-23, 00:10:00,VALID,917.671,VALID,0,VALID,100,VALID,-0.0849042,VALID,19.4253,VALID,54,VALID,0.396839,
2004-10-23, 00:11:00,VALID,917.657,VALID,0,VALID,100,VALID,-0.0679233,VALID,19.419,VALID,54,VALID,0.474077,
2004-10-23, 00:12:00,VALID,917.643,VALID,0,VALID,100,VALID,-0.0849042,VALID,19.426,VALID,54,VALID,0.628711,
2004-10-23, 00:13:00,VALID,917.642,VALID,0,VALID,100,VALID,-0.0849042,VALID,19.4121,VALID,54,VALID,0.422447,
2004-10-23, 00:14:00,VALID,917.622,VALID,0,VALID,100,VALID,-0.0679233,VALID,19.4002,VALID,60,VALID,0.528409,
2004-10-23, 00:15:00,VALID,917.622,VALID,0,VALID,100,VALID,-0.101885,VALID,19.3937,VALID,116,VALID,0.544085,
2004-10-23, 00:16:00,VALID,917.618,VALID,0,VALID,100,VALID,-0.101885,VALID,19.4029,VALID,144,VALID,0.8038,
2004-10-23, 00:17:00,VALID,917.631,VALID,0,VALID,100,VALID,-0.0849042,VALID,19.3962,VALID,136,VALID,0.89577,
2004-10-23, 00:18:00,VALID,917.633,VALID,0,VALID,100,VALID,-0.0509425,VALID,19.4031,VALID,129,VALID,0.794588,
2004-10-23, 00:19:00,VALID,917.639,VALID,0,VALID,100,VALID,-0.101885,VALID,19.4027,VALID,123,VALID,0.616257,
2004-10-23, 00:20:00,VALID,917.644,VALID,0,VALID,100,VALID,-0.101885,VALID,19.3967,VALID,102,VALID,0.882813,
2004-10-23, 00:21:00,VALID,917.644,VALID,0,VALID,100,VALID,-0.0679233,VALID,19.3704,VALID,113,VALID,0.938743,
2004-10-23, 00:22:00,VALID,917.643,VALID,0,VALID,100,VALID,-0.101885,VALID,19.3642,VALID,94,VALID,0.900645,
2004-10-23, 00:23:00,VALID,917.643,VALID,0,VALID,100,VALID,-0.101885,VALID,19.3671,VALID,106,VALID,0.598772,
2004-10-23, 00:24:00,VALID,917.637,VALID,0,VALID,100,VALID,-0.0849042,VALID,19.3515,VALID,87,VALID,1.21021,
2004-10-23, 00:25:00,VALID,917.621,VALID,0,VALID,100,VALID,-0.0679233,VALID,19.3448,VALID,69,VALID,0.584961,
2004-10-23, 00:26:00,VALID,917.624,VALID,0,VALID,100,VALID,-0.0679233,VALID,19.3517,VALID,74,VALID,0.878205,
2004-10-23, 00:27:00,VALID,917.62,VALID,0,VALID,100,VALID,-0.0679233,VALID,19.3353,VALID,90,VALID,1.21641,
2004-10-23, 00:28:00,VALID,917.618,VALID,0,VALID,100,VALID,-0.0849042,VALID,19.3224,VALID,118,VALID,0.774858,
2004-10-23, 00:29:00,VALID,917.61,VALID,0,VALID,100,VALID,-0.101885,VALID,19.3252,VALID,124,VALID,0.586554,
2004-10-23, 00:30:00,VALID,917.586,VALID,0,VALID,100,VALID,-0.101885,VALID,19.3254,VALID,122,VALID,0.620458,
2004-10-23, 00:31:00,VALID,917.573,VALID,0,VALID,100,VALID,-0.0679233,VALID,19.3291,VALID,113,VALID,0.844113,
2004-10-23, 00:32:00,VALID,917.543,VALID,0,VALID,100,VALID,-0.118866,VALID,19.3095,VALID,132,VALID,1.54076,
2004-10-23, 00:33:00,VALID,917.512,VALID,0,VALID,100,VALID,-0.101885,VALID,19.3162,VALID,141,VALID,0.945703,
2004-10-23, 00:34:00,VALID,917.486,VALID,0,VALID,100,VALID,-0.0509425,VALID,19.3155,VALID,144,VALID,0.633345,
2004-10-23, 00:35:00,VALID,917.468,VALID,0,VALID,100,VALID,-0.0849042,VALID,19.3187,VALID,150,VALID,1.15253,
2004-10-23, 00:36:00,VALID,917.465,VALID,0,VALID,100,VALID,-0.101885,VALID,19.3058,VALID,154,VALID,1.25747,
2004-10-23, 00:37:00,VALID,917.456,VALID,0,VALID,100,VALID,-0.0679233,VALID,19.3224,VALID,159,VALID,1.10232,
2004-10-23, 00:38:00,VALID,917.449,VALID,0,VALID,100,VALID,-0.0849042,VALID,19.3189,VALID,146,VALID,1.34775,
2004-10-23, 00:39:00,VALID,917.437,VALID,0,VALID,100,VALID,-0.0849042,VALID,19.3224,VALID,152,VALID,1.48765,
2004-10-23, 00:40:00,VALID,917.42,VALID,0,VALID,100,VALID,-0.0679233,VALID,19.3115,VALID,143,VALID,1.12743,
2004-10-23, 00:41:00,VALID,917.421,VALID,0,VALID,100,VALID,-0.0679233,VALID,19.3316,VALID,148,VALID,0.939918,
2004-10-23, 00:42:00,VALID,917.405,VALID,0,VALID,100,VALID,-0.101885,VALID,19.3316,VALID,143,VALID,1.59066,
2004-10-23, 00:43:00,VALID,917.387,VALID,0,VALID,100,VALID,-0.0849042,VALID,19.3483,VALID,134,VALID,1.51658,
2004-10-23, 00:44:00,VALID,917.368,VALID,0,VALID,100,VALID,-0.0849042,VALID,19.3453,VALID,145,VALID,1.34611,
2004-10-23, 00:45:00,VALID,917.359,VALID,0,VALID,100,VALID,-0.0169808,VALID,19.344,VALID,123,VALID,1.30233,
2004-10-23, 00:46:00,VALID,917.34,VALID,0.2,VALID,100,VALID,0,VALID,19.3535,VALID,128,VALID,0.638148,
2004-10-23, 00:47:00,VALID,917.299,VALID,0,VALID,100,VALID,0,VALID,19.3366,VALID,153,VALID,1.31019,
2004-10-23, 00:48:00,VALID,917.282,VALID,0,VALID,100,VALID,0.0169808,VALID,19.3334,VALID,130,VALID,0.774479,
2004-10-23, 00:49:00,VALID,917.261,VALID,0,VALID,100,VALID,0.0169808,VALID,19.3438,VALID,131,VALID,1.21802,
2004-10-23, 00:50:00,VALID,917.264,VALID,0,VALID,100,VALID,0,VALID,19.3371,VALID,136,VALID,1.9351,
2004-10-23, 00:51:00,VALID,917.251,VALID,0,VALID,100,VALID,0,VALID,19.3436,VALID,136,VALID,1.606,
2004-10-23, 00:52:00,VALID,917.227,VALID,0,VALID,100,VALID,0.0169808,VALID,19.3562,VALID,135,VALID,1.27504,
2004-10-23, 00:53:00,VALID,917.184,VALID,0,VALID,100,VALID,0,VALID,19.3694,VALID,144,VALID,1.1452,
2004-10-23, 00:54:00,VALID,917.164,VALID,0,VALID,100,VALID,0,VALID,19.3622,VALID,146,VALID,1.17839,
2004-10-23, 00:55:00,VALID,917.135,VALID,0,VALID,100,VALID,0.0169808,VALID,19.3756,VALID,148,VALID,0.921701,
2004-10-23, 00:56:00,VALID,917.128,VALID,0,VALID,100,VALID,0.0339617,VALID,19.3788,VALID,144,VALID,0.766447,
2004-10-23, 00:57:00,VALID,917.11,VALID,0,VALID,100,VALID,0.0169808,VALID,19.3759,VALID,153,VALID,0.744792,
2004-10-23, 00:58:00,VALID,917.087,VALID,0,VALID,100,VALID,0.0509425,VALID,19.3662,VALID,174,VALID,0.694382,
2004-10-23, 00:59:00,VALID,917.05,VALID,0,VALID,100,VALID,0.0339617,VALID,19.3632,VALID,168,VALID,0.920785,
2004-10-23, 01:00:00,VALID,917.032,VALID,0,VALID,100,VALID,-0.0849042,VALID,19.3577,VALID,155,VALID,0.878534,
2004-10-23, 01:01:00,VALID,916.996,VALID,0.2,VALID,100,VALID,-0.0849042,VALID,19.3584,VALID,171,VALID,1.07014,
2004-10-23, 01:02:00,VALID,916.987,VALID,0,VALID,100,VALID,-0.101885,VALID,19.3356,VALID,171,VALID,0.881392,
2004-10-23, 01:03:00,VALID,916.991,VALID,0,VALID,100,VALID,-0.0509425,VALID,19.3348,VALID,171,VALID,0.401563,
2004-10-23, 01:04:00,VALID,916.991,VALID,0,VALID,100,VALID,-0.101885,VALID,19.3418,VALID,147,VALID,0.617365,
2004-10-23, 01:05:00,VALID,916.983,VALID,0,VALID,100,VALID,-0.0849042,VALID,19.345,VALID,184,VALID,0.321221,
2004-10-23, 01:06:00,VALID,916.991,VALID,0,VALID,100,VALID,-0.0849042,VALID,19.352,VALID,167,VALID,0.708031,
2004-10-23, 01:07:00,VALID,916.994,VALID,0,VALID,100,VALID,-0.0679233,VALID,19.3323,VALID,160,VALID,0.764844,
2004-10-23, 01:08:00,VALID,916.993,VALID,0,VALID,100,VALID,-0.101885,VALID,19.3194,VALID,169,VALID,0.926258,
2004-10-23, 01:09:00,VALID,916.969,VALID,0,VALID,100,VALID,-0.101885,VALID,19.2963,VALID,170,VALID,0.715892,
2004-10-23, 01:10:00,VALID,916.96,VALID,0,VALID,100,VALID,-0.101885,VALID,19.2963,VALID,170,VALID,0.287287,
2004-10-23, 01:11:00,VALID,916.954,VALID,0,VALID,100,VALID,-0.0849042,VALID,19.3164,VALID,141,VALID,0.629972,
2004-10-23, 01:12:00,VALID,916.934,VALID,0.2,VALID,100,VALID,-0.101885,VALID,19.3001,VALID,158,VALID,0.19122,
2004-10-23, 01:13:00,VALID,916.932,VALID,0,VALID,100,VALID,-0.118866,VALID,19.3189,VALID,157,VALID,0.217115,
2004-10-23, 01:14:00,VALID,916.945,VALID,0,VALID,100,VALID,-0.118866,VALID,19.3323,VALID,154,VALID,0.197731,
2004-10-23, 01:15:00,VALID,916.952,VALID,0,VALID,100,VALID,-0.0169808,VALID,19.3247,VALID,147,VALID,0.428516,
2004-10-23, 01:16:00,VALID,916.956,VALID,0,VALID,100,VALID,0.0339617,VALID,19.3078,VALID,132,VALID,0.713405,
2004-10-23, 01:17:00,VALID,916.955,VALID,0,VALID,100,VALID,0,VALID,19.3016,VALID,104,VALID,0.706032,
2004-10-23, 01:18:00,VALID,916.937,VALID,0,VALID,100,VALID,0,VALID,19.3016,VALID,93,VALID,0.515807,
2004-10-23, 01:19:00,VALID,916.926,VALID,0,VALID,100,VALID,0,VALID,19.2956,VALID,108,VALID,1.12809,
2004-10-23, 01:20:00,VALID,916.913,VALID,0,VALID,100,VALID,0.0169808,VALID,19.2854,VALID,62,VALID,1.46822,
2004-10-23, 01:21:00,VALID,916.883,VALID,0,VALID,100,VALID,0,VALID,19.2921,VALID,64,VALID,1.70884,
2004-10-23, 01:22:00,VALID,916.866,VALID,0,VALID,100,VALID,-0.0169808,VALID,19.2951,VALID,87,VALID,1.35271,
2004-10-23, 01:23:00,VALID,916.857,VALID,0,VALID,100,VALID,0,VALID,19.2986,VALID,56,VALID,0.8391,
2004-10-23, 01:24:00,VALID,916.856,VALID,0,VALID,100,VALID,0,VALID,19.3113,VALID,67,VALID,0.826601,
2004-10-23, 01:25:00,VALID,916.837,VALID,0,VALID,100,VALID,-0.0169808,VALID,19.3147,VALID,40,VALID,0.897529,
2004-10-23, 01:26:00,VALID,916.838,VALID,0,VALID,100,VALID,-0.0679233,VALID,19.3152,VALID,52,VALID,0.858259,
2004-10-23, 01:27:00,VALID,916.822,VALID,0,VALID,100,VALID,0,VALID,19.2924,VALID,73,VALID,0.859947,
2004-10-23, 01:28:00,VALID,916.829,VALID,0,VALID,100,VALID,-0.0169808,VALID,19.2956,VALID,71,VALID,0.774023,
2004-10-23, 01:29:00,VALID,916.835,VALID,0,VALID,100,VALID,0,VALID,19.2986,VALID,68,VALID,0.464935,
2004-10-23, 01:30:00,VALID,916.806,VALID,0,VALID,100,VALID,-0.0339617,VALID,19.2986,VALID,77,VALID,0.535689,
2004-10-23, 01:31:00,VALID,916.784,VALID,0,VALID,100,VALID,0,VALID,19.2924,VALID,12,VALID,0.628729,
2004-10-23, 01:32:00,VALID,916.797,VALID,0,VALID,100,VALID,0.0169808,VALID,19.2924,VALID,19,VALID,0.738372,
2004-10-23, 01:33:00,VALID,916.79,VALID,0,VALID,100,VALID,0.0169808,VALID,19.3018,VALID,36,VALID,0.609375,
2004-10-23, 01:34:00,VALID,916.794,VALID,0,VALID,100,VALID,0,VALID,19.2887,VALID,61,VALID,0.497396,
2004-10-23, 01:35:00,VALID,916.787,VALID,0,VALID,100,VALID,0,VALID,19.2728,VALID,61,VALID,0.197545,
2004-10-23, 01:36:00,VALID,916.786,VALID,0,VALID,100,VALID,0,VALID,19.2728,VALID,62,VALID,0.319404,
2004-10-23, 01:37:00,VALID,916.784,VALID,0,VALID,100,VALID,0,VALID,19.2465,VALID,63,VALID,0.395312,
2004-10-23, 01:38:00,VALID,916.78,VALID,0,VALID,100,VALID,0,VALID,19.2467,VALID,64,VALID,0.273615,
2004-10-23, 01:39:00,VALID,916.781,VALID,0,VALID,100,VALID,0,VALID,19.2435,VALID,66,VALID,0.599848,
2004-10-23, 01:40:00,VALID,916.792,VALID,0,VALID,100,VALID,0,VALID,19.237,VALID,67,VALID,0.377362,
2004-10-23, 01:41:00,VALID,916.809,VALID,0,VALID,100,VALID,0,VALID,19.2273,VALID,68,VALID,0.663672,
2004-10-23, 01:42:00,VALID,916.835,VALID,0,VALID,100,VALID,0,VALID,19.2308,VALID,69,VALID,0.439276,
2004-10-23, 01:43:00,VALID,916.84,VALID,0,VALID,100,VALID,0,VALID,19.2209,VALID,69,VALID,0.317522,
2004-10-23, 01:44:00,VALID,916.839,VALID,0,VALID,100,VALID,0,VALID,19.2216,VALID,69,VALID,0.345703,
2004-10-23, 01:45:00,VALID,916.858,VALID,0,VALID,100,VALID,-0.0339617,VALID,19.2315,VALID,69,VALID,0.0501454,
2004-10-23, 01:46:00,VALID,916.874,VALID,0,VALID,100,VALID,0,VALID,19.2214,VALID,69,VALID,0,
2004-10-23, 01:47:00,VALID,916.886,VALID,0,VALID,100,VALID,0,VALID,19.2248,VALID,69,VALID,0.14984,
2004-10-23, 01:48:00,VALID,916.888,VALID,0,VALID,100,VALID,0.0169808,VALID,19.2209,VALID,69,VALID,0.0559896,
2004-10-23, 01:49:00,VALID,916.884,VALID,0,VALID,100,VALID,0,VALID,19.2174,VALID,69,VALID,0,
2004-10-23, 01:50:00,VALID,916.886,VALID,0,VALID,100,VALID,-0.0169808,VALID,19.231,VALID,69,VALID,0,
2004-10-23, 01:51:00,VALID,916.888,VALID,0,VALID,100,VALID,0,VALID,19.241,VALID,69,VALID,0,
2004-10-23, 01:52:00,VALID,916.894,VALID,0,VALID,100,VALID,0.0169808,VALID,19.2469,VALID,69,VALID,0,
2004-10-23, 01:53:00,VALID,916.897,VALID,0,VALID,100,VALID,0,VALID,19.234,VALID,69,VALID,0,
2004-10-23, 01:54:00,VALID,916.875,VALID,0,VALID,100,VALID,0,VALID,19.2276,VALID,69,VALID,0,
2004-10-23, 01:55:00,VALID,916.884,VALID,0,VALID,100,VALID,0.0169808,VALID,19.2412,VALID,69,VALID,0.214558,
2004-10-23, 01:56:00,VALID,916.889,VALID,0,VALID,100,VALID,0,VALID,19.2539,VALID,69,VALID,0.339844,
2004-10-23, 01:57:00,VALID,916.868,VALID,0,VALID,100,VALID,0,VALID,19.2603,VALID,69,VALID,0.211664,
2004-10-23, 01:58:00,VALID,916.864,VALID,0,VALID,100,VALID,0,VALID,19.2599,VALID,98,VALID,0.330433,
2004-10-23, 01:59:00,VALID,916.846,VALID,0,VALID,100,VALID,0,VALID,19.2534,VALID,117,VALID,0.0299782,
2004-10-23, 02:00:00,VALID,916.839,VALID,0,VALID,100,VALID,-0.0679233,VALID,19.2477,VALID,118,VALID,0.332589,
2004-10-23, 02:01:00,VALID,916.834,VALID,0,VALID,100,VALID,-0.0339617,VALID,19.2348,VALID,118,VALID,0.0742188,
2004-10-23, 02:02:00,VALID,916.844,VALID,0,VALID,100,VALID,-0.0169808,VALID,19.2343,VALID,118,VALID,0,
2004-10-23, 02:03:00,VALID,916.833,VALID,0,VALID,100,VALID,-0.0339617,VALID,19.2514,VALID,117,VALID,0,
2004-10-23, 02:04:00,VALID,916.832,VALID,0,VALID,100,VALID,-0.0679233,VALID,19.2442,VALID,118,VALID,0.0184659,
2004-10-23, 02:05:00,VALID,916.822,VALID,0,VALID,100,VALID,-0.0339617,VALID,19.2546,VALID,118,VALID,0.256324,
2004-10-23, 02:06:00,VALID,916.813,VALID,0,VALID,100,VALID,-0.0339617,VALID,19.2345,VALID,118,VALID,0.0305233,
2004-10-23, 02:07:00,VALID,916.807,VALID,0,VALID,100,VALID,-0.0169808,VALID,19.2149,VALID,119,VALID,0.316311,
2004-10-23, 02:08:00,VALID,916.808,VALID,0,VALID,100,VALID,-0.0339617,VALID,19.2094,VALID,132,VALID,0.631177,
2004-10-23, 02:09:00,VALID,916.8,VALID,0,VALID,100,VALID,-0.0339617,VALID,19.1863,VALID,115,VALID,0.352679,
2004-10-23, 02:10:00,VALID,916.794,VALID,0,VALID,100,VALID,-0.0509425,VALID,19.1958,VALID,84,VALID,0.926136,
2004-10-23, 02:11:00,VALID,916.794,VALID,0,VALID,100,VALID,-0.0339617,VALID,19.1858,VALID,107,VALID,0.329901,
2004-10-23, 02:12:00,VALID,916.803,VALID,0,VALID,100,VALID,-0.0169808,VALID,19.1732,VALID,73,VALID,0.624442,
2004-10-23, 02:13:00,VALID,916.775,VALID,0,VALID,100,VALID,-0.0339617,VALID,19.1697,VALID,75,VALID,0.841619,
2004-10-23, 02:14:00,VALID,916.78,VALID,0,VALID,100,VALID,-0.0339617,VALID,19.1699,VALID,72,VALID,0.410823,
2004-10-23, 02:15:00,VALID,916.772,VALID,0,VALID,100,VALID,-0.0509425,VALID,19.1729,VALID,84,VALID,0.621449,
2004-10-23, 02:16:00,VALID,916.777,VALID,0,VALID,100,VALID,-0.0339617,VALID,19.1732,VALID,101,VALID,0.475632,
2004-10-23, 02:17:00,VALID,916.773,VALID,0,VALID,100,VALID,0,VALID,19.1799,VALID,111,VALID,0.717115,
2004-10-23, 02:18:00,VALID,916.753,VALID,0,VALID,100,VALID,-0.0169808,VALID,19.1699,VALID,116,VALID,0.676962,
2004-10-23, 02:19:00,VALID,916.729,VALID,0,VALID,100,VALID,-0.0169808,VALID,19.1829,VALID,110,VALID,0.6,
2004-10-23, 02:20:00,VALID,916.72,VALID,0,VALID,100,VALID,-0.0339617,VALID,19.1863,VALID,117,VALID,0.641183,
2004-10-23, 02:21:00,VALID,916.698,VALID,0,VALID,100,VALID,-0.0339617,VALID,19.1796,VALID,123,VALID,0.825267,
2004-10-23, 02:22:00,VALID,916.688,VALID,0,VALID,100,VALID,-0.0169808,VALID,19.1665,VALID,115,VALID,0.776042,
2004-10-23, 02:23:00,VALID,916.675,VALID,0,VALID,100,VALID,0,VALID,19.1769,VALID,110,VALID,0.805575,
2004-10-23, 02:24:00,VALID,916.668,VALID,0,VALID,100,VALID,-0.0339617,VALID,19.1568,VALID,121,VALID,0.762091,
2004-10-23, 02:25:00,VALID,916.644,VALID,0,VALID,100,VALID,-0.0339617,VALID,19.1441,VALID,129,VALID,0.703325,
2004-10-23, 02:26:00,VALID,916.638,VALID,0,VALID,100,VALID,-0.0509425,VALID,19.1603,VALID,134,VALID,0.514509,
2004-10-23, 02:27:00,VALID,916.633,VALID,0,VALID,100,VALID,-0.0169808,VALID,19.1739,VALID,137,VALID,0.827778,
2004-10-23, 02:28:00,VALID,916.627,VALID,0,VALID,100,VALID,-0.0339617,VALID,19.1605,VALID,105,VALID,0.836825,
2004-10-23, 02:29:00,VALID,916.627,VALID,0,VALID,100,VALID,-0.0169808,VALID,19.1568,VALID,62,VALID,0.446911,
2004-10-23, 02:30:00,VALID,916.625,VALID,0,VALID,100,VALID,-0.0339617,VALID,19.154,VALID,106,VALID,0.854297,
2004-10-23, 02:31:00,VALID,916.62,VALID,0,VALID,100,VALID,-0.0509425,VALID,19.1808,VALID,117,VALID,0.928961,
2004-10-23, 02:32:00,VALID,916.642,VALID,0,VALID,100,VALID,-0.0169808,VALID,19.1766,VALID,125,VALID,0.397656,
2004-10-23, 02:33:00,VALID,916.645,VALID,0,VALID,100,VALID,-0.0509425,VALID,19.1896,VALID,175,VALID,0.719638,
2004-10-23, 02:34:00,VALID,916.633,VALID,0,VALID,100,VALID,0,VALID,19.2027,VALID,168,VALID,0.429688,
2004-10-23, 02:35:00,VALID,916.655,VALID,0,VALID,100,VALID,-0.0339617,VALID,19.1898,VALID,195,VALID,0.258185,
2004-10-23, 02:36:00,VALID,916.666,VALID,0,VALID,100,VALID,-0.0339617,VALID,19.1898,VALID,193,VALID,0.0445131,
2004-10-23, 02:37:00,VALID,916.678,VALID,0,VALID,100,VALID,-0.0169808,VALID,19.1958,VALID,193,VALID,0.0635901,
2004-10-23, 02:38:00,VALID,916.671,VALID,0,VALID,100,VALID,0,VALID,19.199,VALID,193,VALID,0.0052689,
2004-10-23, 02:39:00,VALID,916.669,VALID,0,VALID,100,VALID,-0.0169808,VALID,19.2027,VALID,198,VALID,0.308408,
2004-10-23, 02:40:00,VALID,916.672,VALID,0,VALID,100,VALID,-0.0169808,VALID,19.1799,VALID,211,VALID,0.276677,
2004-10-23, 02:41:00,VALID,916.661,VALID,0,VALID,100,VALID,0,VALID,19.1799,VALID,211,VALID,0.275781,
2004-10-23, 02:42:00,VALID,916.664,VALID,0,VALID,100,VALID,-0.0169808,VALID,19.1868,VALID,218,VALID,0.278232,
2004-10-23, 02:43:00,VALID,916.657,VALID,0,VALID,100,VALID,0,VALID,19.1665,VALID,242,VALID,0.808685,
2004-10-23, 02:44:00,VALID,916.647,VALID,0,VALID,100,VALID,-0.0849042,VALID,19.1774,VALID,243,VALID,0.675872,
2004-10-23, 02:45:00,VALID,916.646,VALID,0,VALID,100,VALID,0,VALID,19.1732,VALID,243,VALID,0.349787,
2004-10-23, 02:46:00,VALID,916.646,VALID,0,VALID,100,VALID,-0.0169808,VALID,19.2002,VALID,243,VALID,0.17378,
2004-10-23, 02:47:00,VALID,916.646,VALID,0,VALID,100,VALID,0,VALID,19.187,VALID,237,VALID,0.456555,
2004-10-23, 02:48:00,VALID,916.659,VALID,0,VALID,100,VALID,-0.0169808,VALID,19.1739,VALID,234,VALID,0.444754,
2004-10-23, 02:49:00,VALID,916.66,VALID,0,VALID,100,VALID,0,VALID,19.1764,VALID,234,VALID,0.439098,
2004-10-23, 02:50:00,VALID,916.678,VALID,0,VALID,100,VALID,-0.0169808,VALID,19.1799,VALID,234,VALID,0.318859,
2004-10-23, 02:51:00,VALID,916.681,VALID,0,VALID,100,VALID,-0.0169808,VALID,19.1769,VALID,248,VALID,0.0607639,
2004-10-23, 02:52:00,VALID,916.677,VALID,0,VALID,100,VALID,0,VALID,19.1866,VALID,354,VALID,0.816051,
2004-10-23, 02:53:00,VALID,916.687,VALID,0,VALID,100,VALID,0,VALID,19.1632,VALID,12,VALID,1.01451,
2004-10-23, 02:54:00,VALID,916.679,VALID,0,VALID,100,VALID,-0.0169808,VALID,19.1481,VALID,16,VALID,0.902344,
2004-10-23, 02:55:00,VALID,916.674,VALID,0,VALID,100,VALID,0,VALID,19.1282,VALID,12,VALID,0.545313,
2004-10-23, 02:56:00,VALID,916.657,VALID,0,VALID,100,VALID,-0.0339617,VALID,19.1054,VALID,359,VALID,0.47561,
2004-10-23, 02:57:00,VALID,916.645,VALID,0,VALID,100,VALID,-0.0169808,VALID,19.0887,VALID,350,VALID,0.654154,
2004-10-23, 02:58:00,VALID,916.639,VALID,0,VALID,100,VALID,0.0169808,VALID,19.0858,VALID,348,VALID,0.180259,
2004-10-23, 02:59:00,VALID,916.635,VALID,0,VALID,100,VALID,0,VALID,19.0954,VALID,348,VALID,0,
2004-10-23, 03:00:00,VALID,916.629,VALID,0,VALID,100,VALID,0,VALID,19.1091,VALID,348,VALID,0,
2004-10-23, 03:01:00,VALID,916.635,VALID,0,VALID,100,VALID,-0.0339617,VALID,19.1096,VALID,348,VALID,0,
2004-10-23, 03:02:00,VALID,916.639,VALID,0,VALID,100,VALID,-0.0169808,VALID,19.1163,VALID,348,VALID,0,
2004-10-23, 03:03:00,VALID,916.638,VALID,0,VALID,100,VALID,-0.0339617,VALID,19.113,VALID,348,VALID,0,
2004-10-23, 03:04:00,VALID,916.626,VALID,0,VALID,100,VALID,-0.0679233,VALID,19.1133,VALID,348,VALID,0.0960366,
2004-10-23, 03:05:00,VALID,916.614,VALID,0,VALID,100,VALID,-0.0849042,VALID,19.0999,VALID,16,VALID,0.475142,
2004-10-23, 03:06:00,VALID,916.603,VALID,0,VALID,100,VALID,-0.0509425,VALID,19.0877,VALID,36,VALID,0.560632,
2004-10-23, 03:07:00,VALID,916.594,VALID,0,VALID,100,VALID,-0.0849042,VALID,19.0447,VALID,36,VALID,0.65696,
2004-10-23, 03:08:00,VALID,916.576,VALID,0,VALID,100,VALID,-0.0509425,VALID,19.0293,VALID,36,VALID,0.640434,
2004-10-23, 03:09:00,VALID,916.57,VALID,0,VALID,100,VALID,-0.101885,VALID,19.0325,VALID,36,VALID,0.512326,
2004-10-23, 03:10:00,VALID,916.554,VALID,0,VALID,100,VALID,-0.0679233,VALID,19.0288,VALID,36,VALID,0.328516,
2004-10-23, 03:11:00,VALID,916.538,VALID,0,VALID,100,VALID,-0.0849042,VALID,19.0323,VALID,36,VALID,0.242374,
2004-10-23, 03:12:00,VALID,916.525,VALID,0,VALID,100,VALID,-0.0679233,VALID,19.0355,VALID,36,VALID,0.351744,
2004-10-23, 03:13:00,VALID,916.514,VALID,0,VALID,100,VALID,-0.0509425,VALID,19.0554,VALID,36,VALID,0.262835,
2004-10-23, 03:14:00,VALID,916.502,VALID,0,VALID,100,VALID,-0.0509425,VALID,19.0517,VALID,89,VALID,0.408537,
2004-10-23, 03:15:00,VALID,916.497,VALID,0,VALID,100,VALID,-0.0679233,VALID,19.0551,VALID,110,VALID,0.507994,
2004-10-23, 03:16:00,VALID,916.484,VALID,0,VALID,100,VALID,-0.0509425,VALID,19.0547,VALID,110,VALID,0.518601,
2004-10-23, 03:17:00,VALID,916.473,VALID,0,VALID,100,VALID,-0.0339617,VALID,19.0775,VALID,110,VALID,0.4125,
2004-10-23, 03:18:00,VALID,916.463,VALID,0,VALID,100,VALID,-0.0679233,VALID,19.0805,VALID,115,VALID,0.525152,
2004-10-23, 03:19:00,VALID,916.452,VALID,0,VALID,100,VALID,-0.0509425,VALID,19.0867,VALID,135,VALID,0.877544,
2004-10-23, 03:20:00,VALID,916.431,VALID,0,VALID,100,VALID,-0.0339617,VALID,19.087,VALID,134,VALID,0.914634,
2004-10-23, 03:21:00,VALID,916.434,VALID,0,VALID,100,VALID,-0.0169808,VALID,19.0966,VALID,132,VALID,0.665305,
2004-10-23, 03:22:00,VALID,916.416,VALID,0,VALID,100,VALID,-0.0509425,VALID,19.0932,VALID,133,VALID,0.803445,
2004-10-23, 03:23:00,VALID,916.412,VALID,0,VALID,100,VALID,-0.0679233,VALID,19.113,VALID,139,VALID,0.804893,
2004-10-23, 03:24:00,VALID,916.414,VALID,0,VALID,100,VALID,-0.0339617,VALID,19.1257,VALID,138,VALID,0.544336,
2004-10-23, 03:25:00,VALID,916.394,VALID,0,VALID,100,VALID,-0.0679233,VALID,19.1284,VALID,138,VALID,0.614784,
2004-10-23, 03:26:00,VALID,916.382,VALID,0,VALID,100,VALID,-0.0509425,VALID,19.1587,VALID,154,VALID,0.548549,
2004-10-23, 03:27:00,VALID,916.381,VALID,0,VALID,100,VALID,-0.0679233,VALID,19.1617,VALID,166,VALID,0.268111,
2004-10-23, 03:28:00,VALID,916.369,VALID,0,VALID,100,VALID,-0.0679233,VALID,19.1709,VALID,166,VALID,0.0358665,
2004-10-23, 03:29:00,VALID,916.349,VALID,0,VALID,100,VALID,-0.0679233,VALID,19.1741,VALID,166,VALID,0.00114329,
2004-10-23, 03:30:00,VALID,916.352,VALID,0,VALID,100,VALID,-0.0679233,VALID,19.1647,VALID,166,VALID,0,
2004-10-23, 03:31:00,VALID,916.343,VALID,0,VALID,100,VALID,-0.0509425,VALID,19.1485,VALID,166,VALID,0,
2004-10-23, 03:32:00,VALID,916.334,VALID,0,VALID,100,VALID,-0.0849042,VALID,19.1485,VALID,166,VALID,0,
2004-10-23, 03:33:00,VALID,916.333,VALID,0,VALID,100,VALID,-0.0849042,VALID,19.1356,VALID,166,VALID,0,
2004-10-23, 03:34:00,VALID,916.311,VALID,0,VALID,100,VALID,-0.0339617,VALID,19.1195,VALID,136,VALID,0.327762,
2004-10-23, 03:35:00,VALID,916.318,VALID,0,VALID,100,VALID,-0.0679233,VALID,19.1098,VALID,90,VALID,0.646577,
2004-10-23, 03:36:00,VALID,916.32,VALID,0,VALID,100,VALID,-0.101885,VALID,19.0974,VALID,64,VALID,0.600174,
2004-10-23, 03:37:00,VALID,916.312,VALID,0,VALID,100,VALID,-0.0849042,VALID,19.0708,VALID,79,VALID,0.326219,
2004-10-23, 03:38:00,VALID,916.297,VALID,0,VALID,100,VALID,-0.0509425,VALID,19.0385,VALID,98,VALID,0.330788,
2004-10-23, 03:39:00,VALID,916.3,VALID,0,VALID,100,VALID,-0.0679233,VALID,19.0162,VALID,98,VALID,0.0878906,
2004-10-23, 03:40:00,VALID,916.305,VALID,0,VALID,100,VALID,-0.0679233,VALID,19,VALID,103,VALID,0.27798,